(357728) = 2005 QB139

Discovered at Kitt Peak on 2005-08-28 by Spacewatch.

Orbit

Orbit type: Main Belt

Note: WebGL enabled browser required.

epoch2024-03-31.0
epoch JD2460400.5
perihelion date2022-06-29.08726
perihelion JD2459759.58726
argument of perihelion (°)291.10777
ascending node (°)163.47531
inclination (°)9.95752
eccentricity0.0933767
perihelion distance (AU)2.7124797
Tisserand w.r.t. Jupiter3.2
ΔV w.r.t. Earth (km/sec)10.7
semimajor axis (AU)2.9918487
mean anomaly (°)122.06560
mean daily motion (°/day)0.19045590
aphelion distance (AU)3.271
period (years)5.17
P-vector [x]-0.08390177
P-vector [y]0.96635533
P-vector [z]0.24314165
Q-vector [x]-0.99525954
Q-vector [y]-0.09330981
Q-vector [z]0.02741775
absolute magnitude16.42
phase slope0.15
uncertainty0
referenceMPEC 2024-E23
observations used320
oppositions15
arc length (days)8253
first opposition used2000
last opposition used2023
residual rms (arc-secs)0.76
perturbers coarse indicatorM-v
perturbers precise indicator003Ek
first observation date used2000-10-07.0
last observation date used2023-05-13.0
computer nameMPCLINUX
JD of orbit computation2456877.852870
perihelion JD uncertainty (days)1.6264E-04
argument of perihelion uncertainty (°)4.0048E-05
ascending node uncertainty (°)2.9220E-05
inclination uncertainty (°)4.0957E-06
eccentricity uncertainty 4.7242E-08
perihelion distance uncertainty (AU)1.3360E-07
Minimum Orbit Intersection Distances (in AU)
for orbit epoch: 2460400.5, reference: E2024-E23
Mercury2.41253
Venus2.00884
Earth1.74925
Mars1.13936
Jupiter1.89542
Saturn6.37104
Uranus15.5145
Neptune26.8857

Observations

322 total observations over interval: 2000 10 07.36456 – 2023 05 13.213892
These data are available for download (format description).

Date (UT) J2000 RA J2000 Dec Magn Location Ref
2000 10 07.36456 00 47 14.64 -02 30 41.8 20.7 V 691 – Steward Observatory, Kitt Peak-Spacewatch MPS 255868
2000 10 07.38574 00 47 13.72 -02 30 51.0 20.9 V 691 – Steward Observatory, Kitt Peak-Spacewatch MPS 255868
2000 10 07.40695 00 47 12.78 -02 31 00.6 20.7 V 691 – Steward Observatory, Kitt Peak-Spacewatch MPS 255868
2003 04 30.23843 13 55 42.26 -00 24 32.3 21.9 V 691 – Steward Observatory, Kitt Peak-Spacewatch MPS 255868
2003 04 30.27409 13 55 40.74 -00 24 21.7 21.9 V 691 – Steward Observatory, Kitt Peak-Spacewatch MPS 255868
2003 04 30.31320 13 55 38.98 -00 24 09.9 21.8 V 691 – Steward Observatory, Kitt Peak-Spacewatch MPS 255868
2005 08 28.39876 00 04 49.56 -01 44 45.7 21.0 V 691 – Steward Observatory, Kitt Peak-Spacewatch MPS 140380
2005 08 28.41608 00 04 49.00 -01 44 52.4 21.0 V 691 – Steward Observatory, Kitt Peak-Spacewatch MPS 140380
2005 08 28.43689 00 04 48.34 -01 45 01.0 21.1 V 691 – Steward Observatory, Kitt Peak-Spacewatch MPS 140380
2005 09 01.38279 00 02 42.21 -02 12 19.8 20.9 V 691 – Steward Observatory, Kitt Peak-Spacewatch MPS 140380
2005 09 01.40370 00 02 41.49 -02 12 28.6 20.8 V 691 – Steward Observatory, Kitt Peak-Spacewatch MPS 140380
2005 09 01.42109 00 02 40.87 -02 12 36.0 20.9 V 691 – Steward Observatory, Kitt Peak-Spacewatch MPS 140380
2005 09 11.35939 23 56 30.16 -03 26 45.2 20.9 V 691 – Steward Observatory, Kitt Peak-Spacewatch MPS 141774
2005 09 11.37672 23 56 29.43 -03 26 53.9 21.2 V 691 – Steward Observatory, Kitt Peak-Spacewatch MPS 141774
2005 09 11.39414 23 56 28.69 -03 27 01.5 20.6 V 691 – Steward Observatory, Kitt Peak-Spacewatch MPS 141774
2008 03 04.41591 13 28 19.02 -02 41 44.3 20.8 V G96 – Mt. Lemmon Survey MPS 255868
2008 03 04.42245 13 28 18.84 -02 41 41.9 21.3 V G96 – Mt. Lemmon Survey MPS 255868
2008 03 04.42903 13 28 18.73 -02 41 40.0 21.9 V G96 – Mt. Lemmon Survey MPS 255868
2008 03 04.43560 13 28 18.55 -02 41 36.8 21.7 V G96 – Mt. Lemmon Survey MPS 255868
2008 03 31.37641 13 13 26.54 +00 28 50.9 20.6 V G96 – Mt. Lemmon Survey MPS 255868
2008 03 31.38176 13 13 26.29 +00 28 52.8 20.7 V G96 – Mt. Lemmon Survey MPS 255868
2008 03 31.38714 13 13 26.11 +00 28 55.2 20.4 V G96 – Mt. Lemmon Survey MPS 255868
2008 03 31.39249 13 13 25.86 +00 28 57.5 21.2 V G96 – Mt. Lemmon Survey MPS 255868
2008 04 09.31062 13 07 01.16 +01 32 16.2 20.7 V G96 – Mt. Lemmon Survey MPS 255868
2008 04 09.31692 13 07 00.84 +01 32 18.8 20.4 V G96 – Mt. Lemmon Survey MPS 255868
2008 04 09.32323 13 07 00.58 +01 32 21.3 20.8 V G96 – Mt. Lemmon Survey MPS 255868
2008 04 09.32952 13 07 00.33 +01 32 23.7 20.6 V G96 – Mt. Lemmon Survey MPS 255868
2008 05 04.23306 12 51 34.09 +03 41 13.9 20.4 V G96 – Mt. Lemmon Survey MPS 255868
2008 05 04.23806 12 51 33.94 +03 41 15.4 20.3 V G96 – Mt. Lemmon Survey MPS 255868
2008 05 04.24303 12 51 33.80 +03 41 16.1 20.5 V G96 – Mt. Lemmon Survey MPS 255868
2008 05 04.24804 12 51 33.66 +03 41 17.1 20.6 V G96 – Mt. Lemmon Survey MPS 255868
2010 09 02.29078 22 57 56.88 -06 05 48.3 20.4 V G96 – Mt. Lemmon Survey MPS 346289
2010 09 02.29763 22 57 56.55 -06 05 51.4 20.4 V G96 – Mt. Lemmon Survey MPS 346289
2010 09 02.30444 22 57 56.26 -06 05 54.2 20.3 V G96 – Mt. Lemmon Survey MPS 346289
2010 09 02.31139 22 57 55.98 -06 05 57.3 20.1 V G96 – Mt. Lemmon Survey MPS 346289
2011 12 16.38136 05 14 42.444 +07 36 20.41 20.1 r F51 – Pan-STARRS 1, Haleakala MPS 404227
2011 12 16.39340 05 14 41.793 +07 36 20.48 20.1 r F51 – Pan-STARRS 1, Haleakala MPS 404227
2011 12 16.40696 05 14 41.077 +07 36 20.57 20.0 i F51 – Pan-STARRS 1, Haleakala MPS 404227
2011 12 16.42009 05 14 40.374 +07 36 20.61 19.9 i F51 – Pan-STARRS 1, Haleakala MPS 404227
2013 01 19.45698 12 26 35.23 -01 46 39.9 21.3 V G96 – Mt. Lemmon Survey MPS 452299
2013 01 19.46280 12 26 35.34 -01 46 39.5 21.3 V G96 – Mt. Lemmon Survey MPS 452299
2013 01 19.46869 12 26 35.44 -01 46 39.0 21.1 V G96 – Mt. Lemmon Survey MPS 452299
2013 01 19.47460 12 26 35.52 -01 46 38.4 21.4 V G96 – Mt. Lemmon Survey MPS 452299
2013 03 15.22778 12 12 10.98 +03 01 50.2 20.8 G G45 – Space Surveillance Telescope, Atom Site MPS 1610049
2013 03 15.23919 12 12 10.55 +03 01 56.1 20.8 G G45 – Space Surveillance Telescope, Atom Site MPS 1610049
2013 03 15.35330 12 12 05.54 +03 02 49.5 20.1 V G96 – Mt. Lemmon Survey MPS 459276
2013 03 15.35431 12 12 05.46 +03 02 50.1 20.9 G G45 – Space Surveillance Telescope, Atom Site MPS 1610049
2013 03 15.35870 12 12 05.32 +03 02 52.0 20.1 V G96 – Mt. Lemmon Survey MPS 459276
2013 03 15.36416 12 12 05.04 +03 02 54.8 20.1 V G96 – Mt. Lemmon Survey MPS 459276
2013 03 15.36970 12 12 04.86 +03 02 57.3 20.1 V G96 – Mt. Lemmon Survey MPS 459276
2013 03 15.38235 12 12 04.18 +03 03 04.6 20.4 G G45 – Space Surveillance Telescope, Atom Site MPS 1610049
2014 05 06.51631 17 32 00.487 -09 47 58.24 21.3 w F51 – Pan-STARRS 1, Haleakala MPS 515214
2014 05 06.52836 17 32 00.155 -09 47 56.19 21.7 w F51 – Pan-STARRS 1, Haleakala MPS 515214
2014 05 06.54035 17 31 59.831 -09 47 53.59 21.5 w F51 – Pan-STARRS 1, Haleakala MPS 515214
2014 06 24.38299 16 57 41.306 -08 31 08.45 21.2 w F51 – Pan-STARRS 1, Haleakala MPS 521262
2014 06 24.39581 16 57 40.728 -08 31 08.87 21.1 w F51 – Pan-STARRS 1, Haleakala MPS 521262
2014 06 24.40864 16 57 40.161 -08 31 09.52 21.2 w F51 – Pan-STARRS 1, Haleakala MPS 521262
2014 06 24.42142 16 57 39.590 -08 31 10.00 21.3 w F51 – Pan-STARRS 1, Haleakala MPS 521262
2014 07 02.33161 16 52 23.475 -08 39 50.17 21.3 w F51 – Pan-STARRS 1, Haleakala MPS 522175
2014 07 02.34423 16 52 22.988 -08 39 51.46 21.3 w F51 – Pan-STARRS 1, Haleakala MPS 522175
2014 07 02.36944 16 52 22.046 -08 39 53.59 21.3 w F51 – Pan-STARRS 1, Haleakala MPS 522175
2014 07 04.33824 16 51 11.729 -08 43 00.45 21.2 i F51 – Pan-STARRS 1, Haleakala MPS 522774
2014 07 04.35118 16 51 11.255 -08 43 01.80 20.9 i F51 – Pan-STARRS 1, Haleakala MPS 522774
2014 07 04.36411 16 51 10.783 -08 43 03.11 20.9 i F51 – Pan-STARRS 1, Haleakala MPS 522774
2014 07 04.37703 16 51 10.334 -08 43 04.48 21.0 i F51 – Pan-STARRS 1, Haleakala MPS 522774
2014 07 26.31945 16 42 51.746 -09 39 55.65 21.9 w F51 – Pan-STARRS 1, Haleakala MPS 525414
2014 07 26.33134 16 42 51.619 -09 39 57.98 22.0 w F51 – Pan-STARRS 1, Haleakala MPS 525414
2014 07 26.34320 16 42 51.495 -09 40 00.47 22.1 w F51 – Pan-STARRS 1, Haleakala MPS 525414
2014 07 26.35507 16 42 51.367 -09 40 02.91 21.8 w F51 – Pan-STARRS 1, Haleakala MPS 525414
2015 07 23.45573 22 18 41.355 -05 24 54.74 21.2 w F51 – Pan-STARRS 1, Haleakala MPS 617517
2015 07 23.46752 22 18 41.041 -05 24 57.40 21.0 w F51 – Pan-STARRS 1, Haleakala MPS 617517
2015 07 23.47928 22 18 40.725 -05 25 00.29 21.0 w F51 – Pan-STARRS 1, Haleakala MPS 617517
2015 07 26.44785 22 17 21.337 -05 37 02.05 20.8 i F51 – Pan-STARRS 1, Haleakala MPS 618455
2015 07 26.45964 22 17 20.999 -05 37 05.18 20.8 i F51 – Pan-STARRS 1, Haleakala MPS 618455
2015 07 26.47142 22 17 20.639 -05 37 08.07 20.9 i F51 – Pan-STARRS 1, Haleakala MPS 618455
2015 07 26.48325 22 17 20.292 -05 37 11.12 20.9 i F51 – Pan-STARRS 1, Haleakala MPS 618455
2015 08 09.42554 22 09 21.189 -06 48 38.49 20.7 w F51 – Pan-STARRS 1, Haleakala MPS 621046
2015 08 09.43760 22 09 20.690 -06 48 42.76 20.6 w F51 – Pan-STARRS 1, Haleakala MPS 621046
2015 08 09.44963 22 09 20.197 -06 48 47.06 20.6 w F51 – Pan-STARRS 1, Haleakala MPS 621046
2015 08 09.46170 22 09 19.698 -06 48 51.30 20.7 w F51 – Pan-STARRS 1, Haleakala MPS 621046
2015 08 14.31169 22 06 01.54 -07 18 29.2 20.7 r G45 – Space Surveillance Telescope, Atom Site MPS 623211
2015 08 14.32452 22 06 00.96 -07 18 33.3 20.7 r G45 – Space Surveillance Telescope, Atom Site MPS 623211
2015 08 14.32688 22 06 00.93 -07 18 34.5 20.6 r G45 – Space Surveillance Telescope, Atom Site MPS 623211
2015 08 14.33342 22 06 00.61 -07 18 37.1 20.3 r G45 – Space Surveillance Telescope, Atom Site MPS 623211
2015 08 21.40791 22 00 56.630 -08 04 39.09 20.5 w F51 – Pan-STARRS 1, Haleakala MPS 624053
2015 08 21.41912 22 00 56.125 -08 04 43.64 20.5 w F51 – Pan-STARRS 1, Haleakala MPS 624053
2015 08 21.43026 22 00 55.625 -08 04 48.11 20.4 w F51 – Pan-STARRS 1, Haleakala MPS 624053
2015 08 21.44138 22 00 55.122 -08 04 52.54 20.4 w F51 – Pan-STARRS 1, Haleakala MPS 624054
